FW1892 Weather Reports


Display with metric or nautical units.
time (UTC)temp
F
wind
direction
speed
MPH
gust
MPH
rain 1hr
in
rain 24hr
in
rain mn
in
humidity
%
barometer
mb
20260510004308 46 142 0.0 0.0 0.00 0.56 0.56 96 1011.1
20260510003805 46 135 0.0 1.0 0.00 0.56 0.56 96 1011.3
20260510003302 46 122 0.0 0.0 0.00 0.56 0.56 96 1011.2
20260510002801 46 128 0.0 0.0 0.00 0.56 0.56 96 1011.2
20260510002258 46 131 0.0 0.0 0.00 0.56 0.56 96 1011.4
20260510001755 46 136 0.0 0.0 0.00 0.56 0.56 96 1011.4
20260510001253 46 128 0.0 0.0 0.00 0.56 0.56 96 1011.4
20260510000748 46 109 0.0 0.0 0.00 0.56 0.56 95 1011.3
20260510000248 46 114 0.0 0.0 0.00 0.56 0.56 95 1011.4
20260509235743 46 118 0.0 0.0 0.00 0.56 0.56 95 1011.2
20260509235240 46 127 0.0 0.0 0.00 0.56 0.56 95 1011.2
20260509234735 46 119 1.0 2.0 0.00 0.56 0.56 95 1011.0
20260509234232 46 122 0.0 0.0 0.00 0.56 0.56 95 1011.1
20260509233731 46 135 0.0 0.0 0.00 0.56 0.56 95 1010.9
20260509233228 46 100 0.0 1.0 0.00 0.56 0.56 95 1011.0
20260509232724 46 121 0.0 3.0 0.00 0.56 0.56 95 1011.0
20260509232221 46 87 1.0 2.0 0.00 0.56 0.56 95 1011.0
20260509231717 46 163 0.0 1.0 0.00 0.56 0.56 95 1011.0
20260509231215 46 121 0.0 0.0 0.00 0.56 0.56 95 1010.8
20260509230712 46 231 1.0 2.0 0.07 0.56 0.56 95 1010.7
20260509230203 46 123 0.0 2.0 0.07 0.56 0.56 95 1010.4
20260509225659 46 131 0.0 1.0 0.00 0.55 0.55 95 1010.5
20260509225154 46 130 1.0 2.0 0.00 0.55 0.55 95 1010.7
20260509224650 46 138 1.0 1.0 0.00 0.55 0.55 95 1010.5
20260509224147 46 91 1.0 3.0 0.00 0.55 0.55 95 1010.5
20260509223644 46 147 0.0 2.0 0.00 0.55 0.55 95 1010.6
20260509223141 46 103 0.0 1.0 0.05 0.55 0.55 95 1010.7
20260509222638 46 138 0.0 2.0 0.05 0.55 0.55 95 1010.7
20260509222133 46 221 0.0 1.0 0.07 0.54 0.54 95 1010.8
20260509221630 46 176 0.0 2.0 0.07 0.54 0.54 94 1010.8
20260509221126 46 176 3.0 4.0 0.07 0.53 0.53 94 1010.8
20260509220622 46 108 0.0 3.0 0.00 0.52 0.52 94 1011.3
20260509220118 46 143 0.0 2.0 0.05 0.52 0.52 94 1011.4
20260509215614 46 103 2.0 3.0 0.07 0.51 0.51 94 1011.2
20260509215111 47 156 0.0 1.0 0.07 0.51 0.51 94 1011.3
20260509214608 47 154 0.0 1.0 0.05 0.50 0.50 94 1011.4
20260509214105 47 130 1.0 4.0 0.05 0.50 0.50 94 1011.5
20260509213600 47 130 1.0 3.0 0.07 0.49 0.49 94 1011.6
20260509213058 47 114 0.0 2.0 0.05 0.48 0.48 94 1011.7
20260509212555 47 124 0.0 1.0 0.05 0.48 0.48 94 1011.8
20260509212052 47 135 0.0 0.0 0.07 0.47 0.47 94 1011.9
20260509211547 47 112 0.0 0.0 0.12 0.47 0.47 94 1011.9
20260509211044 47 142 0.0 0.0 0.24 0.46 0.46 94 1012.1
20260509210542 47 110 0.0 2.0 0.24 0.45 0.45 93 1011.7
20260509210038 47 131 0.0 1.0 0.12 0.42 0.42 93 1012.0
20260509205537 47 143 1.0 1.0 0.19 0.41 0.41 93 1011.9
20260509205033 47 103 2.0 4.0 0.24 0.40 0.40 92 1011.9
20260509204530 47 115 0.0 1.0 0.12 0.38 0.38 92 1012.0
20260509204026 47 127 0.0 1.0 0.07 0.36 0.36 92 1011.8
20260509203522 47 152 0.0 1.0 0.07 0.36 0.36 92 1011.8
20260509203021 47 148 0.0 1.0 0.05 0.35 0.35 92 1011.8
20260509202520 47 92 0.0 0.0 0.00 0.34 0.34 92 1011.6
20260509202017 48 125 1.0 2.0 0.00 0.34 0.34 91 1011.6
20260509201512 48 140 1.0 1.0 0.00 0.34 0.34 92 1011.6
20260509201010 47 172 0.0 2.0 0.00 0.34 0.34 91 1011.6
20260509200509 48 91 0.0 3.0 0.00 0.34 0.34 91 1011.6
20260509200006 48 102 1.0 3.0 0.00 0.34 0.34 91 1011.6
20260509195502 48 88 2.0 3.0 0.00 0.34 0.34 90 1011.4
20260509195001 48 148 0.0 1.0 0.00 0.34 0.34 92 1011.4
20260509194457 47 129 0.0 2.0 0.00 0.34 0.34 91 1011.4
20260509193955 47 113 0.0 3.0 0.00 0.34 0.34 92 1011.4
20260509193454 47 100 1.0 6.0 0.00 0.34 0.34 91 1011.5
20260509192950 47 125 1.0 2.0 0.00 0.34 0.34 91 1011.6
20260509192448 47 212 1.0 1.0 0.00 0.34 0.34 92 1011.6
20260509191942 46 108 1.0 4.0 0.00 0.34 0.34 92 1011.5
20260509191438 46 140 0.0 1.0 0.00 0.34 0.34 92 1011.6
20260509190934 46 125 1.0 2.0 0.00 0.34 0.34 92 1011.8
20260509190431 46 134 1.0 3.0 0.00 0.34 0.34 92 1012.0
20260509185929 47 113 1.0 3.0 0.00 0.34 0.34 92 1011.9
20260509185426 47 143 0.0 6.0 0.07 0.34 0.34 92 1012.0
20260509184923 47 137 1.0 2.0 0.07 0.34 0.34 93 1011.9
20260509184420 47 99 1.0 2.0 0.00 0.33 0.33 93 1012.0
20260509183917 47 131 0.0 2.0 0.05 0.33 0.33 93 1012.1
20260509183411 46 124 0.0 0.0 0.12 0.33 0.33 93 1012.1
20260509182908 46 118 0.0 0.0 0.12 0.32 0.32 93 1012.6
20260509182405 46 95 0.0 3.0 0.12 0.30 0.30 92 1012.5
20260509181902 46 89 0.0 2.0 0.12 0.30 0.30 92 1012.5
20260509181359 46 120 0.0 3.0 0.07 0.28 0.28 92 1012.7
20260509180857 47 71 1.0 2.0 0.07 0.28 0.28 92 1012.4
20260509180352 47 130 0.0 3.0 0.07 0.27 0.27 92 1012.7
20260509175849 47 132 0.0 1.0 0.12 0.27 0.27 92 1012.5
20260509175345 47 126 0.0 3.0 0.12 0.26 0.26 92 1012.5
20260509174841 47 81 0.0 0.0 0.07 0.25 0.25 93 1012.8
20260509174338 46 143 0.0 3.0 0.05 0.24 0.24 92 1012.7
20260509173833 46 68 1.0 2.0 0.12 0.24 0.24 92 1013.0
20260509173329 46 181 1.0 1.0 0.12 0.23 0.23 92 1012.9
20260509172825 46 116 1.0 1.0 0.12 0.22 0.22 92 1013.0
20260509172322 46 104 0.0 0.0 0.12 0.21 0.21 92 1012.9
20260509171818 46 104 0.0 2.0 0.05 0.20 0.20 91 1013.1
20260509171314 46 198 2.0 2.0 0.07 0.19 0.19 91 1013.1
20260509170810 46 117 0.0 0.0 0.12 0.19 0.19 92 1012.7
20260509170306 46 147 0.0 0.0 0.12 0.18 0.18 91 1012.9
20260509165806 46 147 0.0 1.0 0.12 0.17 0.17 91 1013.1
20260509165301 46 139 0.0 0.0 0.05 0.16 0.16 91 1013.0
20260509164757 46 130 0.0 0.0 0.07 0.15 0.15 91 1012.9
20260509164253 46 103 0.0 0.0 0.07 0.14 0.14 90 1012.8
20260509163750 46 133 0.0 0.0 0.12 0.14 0.14 90 1012.9
20260509163246 46 51 0.0 0.0 0.12 0.13 0.13 89 1012.7
20260509162745 46 122 0.0 0.0 0.07 0.12 0.12 90 1012.9
20260509162239 46 105 0.0 0.0 0.05 0.11 0.11 90 1012.8
20260509161735 46 74 0.0 1.0 0.05 0.11 0.11 89 1013.0
20260509161231 46 139 0.0 1.0 0.07 0.10 0.10 89 1012.9
20260509160727 46 156 0.0 0.0 0.07 0.10 0.10 88 1013.2
20260509160224 46 140 0.0 0.0 0.05 0.09 0.09 88 1013.3
20260509155718 46 150 0.0 1.0 0.05 0.09 0.09 88 1013.5
20260509155215 46 202 1.0 2.0 0.07 0.08 0.08 87 1013.6
20260509154711 46 159 1.0 2.0 0.07 0.08 0.08 87 1013.6
20260509154209 46 207 2.0 2.0 0.05 0.07 0.07 87 1013.6
20260509153706 46 231 0.0 2.0 0.05 0.07 0.07 87 1013.6
20260509153202 46 117 0.0 1.0 0.00 0.06 0.06 87 1013.7
20260509152658 46 128 0.0 2.0 0.07 0.06 0.06 87 1013.7
20260509152155 46 160 2.0 2.0 0.07 0.06 0.06 86 1013.8
20260509151651 46 229 2.0 4.0 0.00 0.05 0.05 87 1013.7
20260509151149 46 111 0.0 2.0 0.05 0.05 0.05 86 1013.6
20260509150647 46 155 1.0 1.0 0.00 0.04 0.04 87 1013.6
20260509150145 46 113 1.0 2.0 0.00 0.04 0.04 86 1013.7
20260509145641 46 161 1.0 1.0 0.00 0.04 0.04 87 1013.7
20260509145136 46 224 3.0 3.0 0.07 0.04 0.04 85 1013.7
20260509144633 46 131 0.0 0.0 0.07 0.04 0.04 87 1013.7
20260509144130 46 128 0.0 0.0 0.00 0.03 0.03 86 1013.7
20260509143627 46 110 0.0 1.0 0.07 0.03 0.03 85 1013.9
20260509143125 46 122 0.0 0.0 0.07 0.03 0.03 84 1013.7
20260509142620 46 149 0.0 3.0 0.00 0.02 0.02 83 1013.8
20260509142116 47 155 1.0 2.0 0.05 0.02 0.02 81 1013.8
20260509141612 47 141 0.0 2.0 0.05 0.02 0.02 81 1013.6
20260509141109 47 181 1.0 1.0 0.00 0.01 0.01 82 1013.4
20260509140606 47 134 0.0 2.0 0.00 0.01 0.01 81 1013.4
20260509140104 47 187 1.0 2.0 0.00 0.01 0.01 81 1013.5
20260509135601 47 212 0.0 2.0 0.00 0.01 0.01 81 1013.5
20260509135059 47 135 0.0 1.0 0.00 0.01 0.01 82 1013.5
20260509134555 47 163 0.0 1.0 0.00 0.01 0.01 81 1013.2
20260509134053 47 181 1.0 1.0 0.00 0.01 0.01 80 1013.2
20260509133549 47 151 0.0 0.0 0.00 0.01 0.01 80 1013.2
20260509133047 47 168 0.0 0.0 0.00 0.01 0.01 81 1013.0
20260509132545 46 126 0.0 0.0 0.00 0.01 0.01 81 1013.1
20260509132043 46 137 0.0 0.0 0.07 0.01 0.01 82 1013.1
20260509131539 46 180 0.0 1.0 0.07 0.01 0.01 81 1013.5
20260509131036 45 142 0.0 0.0 0.00 0.00 0.00 82 1013.2
20260509130531 45 119 0.0 0.0 0.00 0.00 0.00 81 1013.3
20260509130029 46 127 0.0 0.0 0.00 0.00 0.00 80 1013.4
20260509125525 45 123 0.0 0.0 0.00 0.00 0.00 80 1013.6
20260509125022 45 221 0.0 2.0 0.00 0.00 0.00 78 1013.5
20260509124518 45 161 0.0 1.0 0.00 0.00 0.00 77 1013.7
20260509124016 45 201 2.0 2.0 0.00 0.00 0.00 75 1013.6
20260509123514 45 204 2.0 2.0 0.00 0.00 0.00 75 1013.6
20260509123010 46 176 1.0 2.0 0.00 0.00 0.00 74 1013.6
20260509122506 46 122 0.0 0.0 0.00 0.00 0.00 75 1013.6
20260509122003 46 194 3.0 4.0 0.00 0.00 0.00 74 1013.5
20260509121500 46 187 1.0 2.0 0.00 0.00 0.00 73 1013.6
20260509120958 46 174 1.0 1.0 0.00 0.00 0.00 73 1013.4
20260509120455 46 148 0.0 1.0 0.00 0.00 0.00 73 1013.3
20260509115953 45 125 0.0 0.0 0.00 0.00 0.00 74 1013.6
20260509115450 45 195 0.0 0.0 0.00 0.00 0.00 75 1013.5
20260509114948 44 150 0.0 0.0 0.00 0.00 0.00 76 1013.4
20260509114446 44 153 0.0 0.0 0.00 0.00 0.00 77 1013.3
20260509113945 43 154 0.0 0.0 0.00 0.00 0.00 78 1013.4
20260509113442 43 157 0.0 0.0 0.00 0.00 0.00 79 1013.4
20260509112939 42 139 0.0 0.0 0.00 0.00 0.00 80 1013.4
20260509112436 42 132 0.0 0.0 0.00 0.00 0.00 82 1013.5
20260509111932 41 107 0.0 0.0 0.00 0.00 0.00 83 1013.6
20260509111430 41 147 0.0 0.0 0.00 0.00 0.00 84 1013.8
20260509110927 41 152 0.0 0.0 0.00 0.00 0.00 85 1013.6
20260509110423 40 148 0.0 0.0 0.00 0.00 0.00 87 1013.8
20260509105921 40 189 0.0 0.0 0.00 0.00 0.00 88 1013.6
20260509105420 39 160 0.0 0.0 0.00 0.00 0.00 89 1013.7
20260509104916 39 135 0.0 0.0 0.00 0.00 0.00 90 1013.7
20260509104413 39 138 0.0 0.0 0.00 0.00 0.00 90 1013.5
20260509103911 38 127 0.0 0.0 0.00 0.00 0.00 90 1013.6
20260509103408 38 127 0.0 0.0 0.00 0.00 0.00 91 1013.7
20260509102906 37 127 0.0 0.0 0.00 0.00 0.00 91 1013.7
20260509102403 37 127 0.0 0.0 0.00 0.00 0.00 92 1013.5
20260509101859 37 127 0.0 0.0 0.00 0.00 0.00 92 1013.4
20260509101355 36 127 0.0 0.0 0.00 0.00 0.00 92 1013.4
20260509100853 36 129 0.0 0.0 0.00 0.00 0.00 92 1013.4
20260509100350 36 142 0.0 0.0 0.00 0.00 0.00 92 1013.2
20260509095847 35 112 0.0 0.0 0.00 0.00 0.00 92 1013.2
20260509095344 35 133 0.0 0.0 0.00 0.00 0.00 92 1013.2
20260509094841 35 144 0.0 0.0 0.00 0.00 0.00 92 1013.3
20260509094338 35 118 0.0 0.0 0.00 0.00 0.00 92 1013.2
20260509093835 35 122 0.0 0.0 0.00 0.00 0.00 92 1013.1
20260509093332 35 122 0.0 0.0 0.00 0.00 0.00 92 1012.9
20260509092831 35 139 0.0 0.0 0.00 0.00 0.00 92 1013.0
20260509092328 34 83 0.0 0.0 0.00 0.00 0.00 92 1012.8
20260509091826 34 140 0.0 0.0 0.00 0.00 0.00 92 1012.8
20260509091323 34 121 0.0 0.0 0.00 0.00 0.00 91 1012.7
20260509090820 34 111 0.0 0.0 0.00 0.00 0.00 91 1012.8
20260509090317 33 160 0.0 0.0 0.00 0.00 0.00 91 1012.9
20260509085814 33 154 0.0 0.0 0.00 0.00 0.00 91 1012.6
20260509085312 33 111 0.0 0.0 0.00 0.00 0.00 91 1012.8
20260509084808 34 129 0.0 0.0 0.00 0.00 0.00 90 1012.7
20260509084305 33 111 0.0 0.0 0.00 0.00 0.00 90 1012.6
20260509083803 34 123 0.0 0.0 0.00 0.00 0.00 90 1012.6
20260509083259 34 141 0.0 0.0 0.00 0.00 0.00 90 1012.5
20260509082756 34 133 0.0 0.0 0.00 0.00 0.00 89 1012.5
20260509082253 34 111 0.0 0.0 0.00 0.00 0.00 89 1012.4
20260509081750 34 116 0.0 0.0 0.00 0.00 0.00 89 1012.5
20260509081247 34 119 0.0 0.0 0.00 0.00 0.00 89 1012.4
20260509080745 34 109 0.0 0.0 0.00 0.00 0.00 89 1012.4
20260509080242 34 115 0.0 0.0 0.00 0.00 0.00 89 1012.4
20260509075741 34 137 0.0 0.0 0.00 0.00 0.00 89 1012.6
20260509075238 34 115 0.0 0.0 0.00 0.00 0.00 89 1012.4
20260509074735 35 115 0.0 0.0 0.00 0.00 0.00 89 1012.4
20260509074232 35 110 0.0 0.0 0.00 0.00 0.00 89 1012.2
20260509073728 35 114 0.0 0.0 0.00 0.00 0.00 88 1012.4
20260509073225 35 113 0.0 0.0 0.00 0.00 0.00 88 1012.3
20260509072721 35 110 0.0 0.0 0.00 0.00 0.00 88 1012.3
20260509072218 35 115 0.0 0.0 0.00 0.00 0.00 88 1012.2
20260509071715 35 112 0.0 0.0 0.00 0.00 0.00 87 1012.4
20260509071212 35 118 0.0 0.0 0.00 0.00 0.00 87 1012.5
20260509070709 35 117 0.0 0.0 0.00 0.00 0.00 87 1012.5
20260509070206 35 113 0.0 0.0 0.00 0.00 0.00 87 1012.4
20260509065702 36 111 0.0 0.0 0.00 0.00 0.00 86 1012.4
20260509065158 35 109 0.0 0.0 0.00 0.00 0.00 86 1012.7
20260509064655 36 135 0.0 0.0 0.00 0.00 0.00 86 1012.8
20260509064153 36 119 0.0 0.0 0.00 0.00 0.00 86 1012.7
20260509063650 36 132 0.0 0.0 0.00 0.00 0.00 85 1012.7
20260509063146 36 102 0.0 0.0 0.00 0.00 0.00 85 1012.6
20260509062643 36 117 0.0 0.0 0.00 0.00 0.00 85 1012.5
20260509062140 36 117 0.0 0.0 0.00 0.00 0.00 85 1012.5
20260509061637 37 117 0.0 0.0 0.00 0.00 0.00 84 1012.6
20260509061134 37 112 0.0 0.0 0.00 0.00 0.00 84 1012.5
20260509060632 37 106 0.0 0.0 0.00 0.00 0.00 84 1012.6
20260509060127 37 106 0.0 0.0 0.00 0.00 0.00 84 1012.6
20260509055623 37 104 0.0 0.0 0.00 0.00 0.00 83 1012.6
20260509055119 37 178 0.0 0.0 0.00 0.00 0.00 83 1012.6
20260509054616 37 114 0.0 0.0 0.00 0.00 0.00 83 1012.6
20260509054114 37 106 0.0 0.0 0.00 0.00 0.00 83 1012.5
20260509053613 37 100 0.0 0.0 0.00 0.00 0.00 82 1012.5
20260509053109 37 124 0.0 0.0 0.00 0.00 0.00 82 1012.4
20260509052607 38 115 0.0 0.0 0.00 0.00 0.00 82 1012.5
20260509052104 38 115 0.0 0.0 0.00 0.00 0.00 81 1012.4
20260509051602 38 114 0.0 0.0 0.00 0.00 0.00 80 1012.3
20260509051059 38 117 0.0 0.0 0.00 0.00 0.00 80 1012.3
20260509050556 38 142 0.0 0.0 0.00 0.00 0.00 80 1012.2
20260509050052 38 144 0.0 0.0 0.00 0.00 0.00 79 1012.3
20260509045550 39 117 0.0 0.0 0.00 0.00 0.00 79 1012.1
20260509045047 39 124 0.0 0.0 0.00 0.00 0.00 78 1012.2
20260509044544 39 109 0.0 0.0 0.00 0.00 0.00 78 1012.3
20260509044041 39 138 0.0 0.0 0.00 0.00 0.00 77 1012.4
20260509043538 40 113 0.0 0.0 0.00 0.00 0.00 76 1012.3
20260509043033 40 110 0.0 0.0 0.00 0.00 0.00 76 1012.2
20260509042530 40 117 0.0 0.0 0.00 0.00 0.00 76 1012.1
20260509042026 40 136 0.0 0.0 0.00 0.00 0.00 75 1012.0
20260509041523 40 116 0.0 0.0 0.00 0.00 0.00 75 1012.1
20260509041021 40 113 0.0 0.0 0.00 0.00 0.00 74 1012.2
20260509040519 41 116 0.0 0.0 0.00 0.00 0.00 74 1012.0
20260509040015 41 139 0.0 0.0 0.00 0.00 0.00 73 1012.0
20260509035512 41 108 0.0 0.0 0.00 0.00 0.00 73 1012.0
20260509035009 41 132 0.0 0.0 0.00 0.00 0.00 72 1012.0
20260509034507 41 176 0.0 0.0 0.00 0.00 0.00 72 1011.8
20260509034004 42 110 0.0 0.0 0.00 0.00 0.00 71 1011.9
20260509033500 42 111 0.0 0.0 0.00 0.00 0.00 71 1011.7
20260509032957 42 125 0.0 0.0 0.00 0.00 0.00 70 1011.8
20260509032454 43 144 0.0 0.0 0.00 0.00 0.00 69 1011.7
20260509031952 43 148 1.0 1.0 0.00 0.00 0.00 68 1011.8
20260509031449 44 116 0.0 0.0 0.00 0.00 0.00 67 1011.5
20260509030946 44 106 0.0 0.0 0.00 0.00 0.00 65 1011.5
20260509030444 44 134 0.0 0.0 0.00 0.00 0.00 64 1011.5
20260509025941 45 125 0.0 0.0 0.00 0.00 0.00 63 1011.4
20260509025437 45 115 0.0 0.0 0.00 0.00 0.00 63 1011.6
20260509024932 46 130 0.0 0.0 0.00 0.00 0.00 60 1011.3
20260509024428 46 130 0.0 0.0 0.00 0.00 0.00 60 1011.4
20260509023925 46 145 0.0 1.0 0.00 0.00 0.00 60 1011.4
20260509023423 47 132 0.0 0.0 0.00 0.00 0.00 58 1011.5
20260509022919 47 154 0.0 1.0 0.00 0.00 0.00 58 1011.2
20260509022417 47 141 0.0 0.0 0.00 0.00 0.00 58 1011.3
20260509021914 47 133 0.0 0.0 0.00 0.00 0.00 58 1011.4
20260509021411 47 123 0.0 0.0 0.00 0.00 0.00 58 1011.2
20260509020908 47 97 0.0 1.0 0.00 0.00 0.00 57 1011.1
20260509020406 47 127 0.0 0.0 0.00 0.00 0.00 58 1011.2
20260509015903 47 145 0.0 1.0 0.00 0.00 0.00 58 1010.8
20260509015402 47 173 0.0 1.0 0.00 0.00 0.00 57 1010.6
20260509014858 47 122 0.0 0.0 0.00 0.00 0.00 58 1010.6
20260509014355 47 142 0.0 0.0 0.00 0.00 0.00 57 1010.5
20260509013851 47 146 0.0 1.0 0.00 0.00 0.00 57 1010.8
20260509013348 48 140 0.0 1.0 0.00 0.00 0.00 55 1010.7
20260509012844 48 142 0.0 1.0 0.00 0.00 0.00 55 1010.5
20260509012340 48 144 0.0 0.0 0.00 0.00 0.00 54 1010.6
20260509011838 49 130 0.0 1.0 0.00 0.00 0.00 54 1010.4
20260509011335 49 167 0.0 1.0 0.00 0.00 0.00 52 1010.2
20260509010833 49 164 0.0 1.0 0.00 0.00 0.00 51 1009.9
20260509010330 50 162 0.0 1.0 0.00 0.00 0.00 51 1009.8
20260509005827 50 182 0.0 2.0 0.00 0.00 0.00 50 1009.9
20260509005325 50 157 0.0 1.0 0.00 0.00 0.00 50 1009.7
20260509004825 50 168 0.0 1.0 0.00 0.00 0.00 50 1009.6